Airfield :
LOGIN :

Register | Disclaimer

   EN    FR    IT 

 










Legend :    VFR   Marginal VFR   IFR   Intensive IFR   Very Intensive IFR
Visi :
Ceiling :
>= 8 km
>= 3000ft
5 to 8 km
1000 to 3000 ft
1500m to 5 km
500 to 1000 ft
800 to 1500m
200 to 500 ft
< 800m
< 200 ft
Symbols :   Thunderstorms  Fog  Heavy snow  Heavy precipitations  Wind > 20 kt
SIGMETs :     Misc.  Thunderstorms  Icing  Turbulence  Mountain Waves  Volcanic Ashes







- Airport Elevation : 909 ft
- IATA code : KSF


EDVK - Kassel Calden

EXPIRED METARs :
  • 171850Z 29010KT 8000 FEW006 BKN012 OVC025 00/M01 Q1004
  • 171820Z 29014KT 5000 -SN SCT006 BKN012 OVC020 00/M00 Q1004

TAF COR TAF EDVK
Valid from the 17 at 18:00 until the 18 at 03:00 UTC


171737Z 1718/1803 28011KT 9999 SCT025
TEMPO 1718/1803 29015G25KT 1200 SHSN BKN006 BKN015CB
No reported NOTAMs for that airfield.



MET'MAP, your aeronautical weather chart ! - Copyright ORBIFLY December 2007 - Disclaimer

ORBIFLY MET'MAP TEAM :

Programming & Development : Alexandra Zaïnal
Concept & Development : Baudouin d'Aumeries
Co-Development & Prog : Marc-Olivier Méhu
Technical & hardware support : Manuel Goepfert

Contact : metmap@orbifly.com




SOURCES & CREDITS :

   NOAA